Athens, OH

5:55 PM EST on December 12, 2017 (GMT -0500)
Ohio University

Weather History for KUNI - February, 2014

Change the Weather History Date:

Thursday, February 27, 2014

  Actual Average (KPKB) Record (KPKB)
Temperature  
Mean Temperature 20 °F -  
Max Temperature 29 °F 45 °F 73 °F (1996)
Min Temperature 11 °F 27 °F -1 °F (1963)
Degree Days  
Heating Degree Days 44    
Moisture  
Dew Point 2 °F    
Average Humidity 48    
Maximum Humidity 61    
Minimum Humidity 26    
Precipitation  
Precipitation 0.00 in - - ()
Sea Level Pressure  
Sea Level Pressure 29.92 in    
Wind  
Wind Speed 9 mph (West)    
Max Wind Speed 24 mph    
Max Gust Speed 36 mph    
Visibility 10 miles    
Events      
Averages and records for this station are not official NWS values.
T = Trace of Precipitation, MM = Missing Value Source: NWS Daily Summary

Daily Weather History Graph

Daily Weather History Graph

Search for Another Location

Airport or City:

Trip Planner

Search our weather history database for the weather conditions in past years. The results will help you decide how hot, cold, wet, or windy it might be!

Date:

Astronomy

Feb. 27, 2014 Rise Set
Actual Time 7:04 AM EST 6:19 PM EST
Civil Twilight 6:37 AM EST 6:46 PM EST
Nautical Twilight 6:06 AM EST 7:17 PM EST
Astronomical Twilight 5:35 AM EST 7:48 PM EST
Moon 5:35 AM EST (2/27) 4:43 PM EST (2/27)
Length of Visible Light 12h 08m
Length of Day
11h 14m
Waning Crescent, 4% of the Moon is Illuminated
Feb 27
Waning Crescent
Mar 1
New
Mar 8
First Quarter
Mar 16
Full
Mar 23
Last Quarter

Hourly Weather History & Observations

Time (EST) Temp. Windchill Dew Point Humidity Pressure Visibility Wind Dir Wind Speed Gust Speed Precip Events Conditions
12:10 AM 16.7 °F 11.2 °F 5.0 °F 60% 29.84 in 10.0 mi SSW 3.5 mph - N/A   Clear
12:30 AM 16.7 °F 9.6 °F 5.4 °F 61% 29.84 in 10.0 mi SSW 4.6 mph - N/A   Clear
12:50 AM 16.7 °F 9.6 °F 5.4 °F 61% 29.83 in 10.0 mi SSW 4.6 mph - N/A   Clear
1:10 AM 16.7 °F 9.6 °F 5.0 °F 60% 29.82 in 10.0 mi SSW 4.6 mph - N/A   Clear
1:30 AM 16.9 °F 8.5 °F 5.0 °F 60% 29.81 in 10.0 mi SSW 5.8 mph - N/A   Clear
1:50 AM 17.2 °F 8.9 °F 5.0 °F 59% 29.81 in 10.0 mi SW 5.8 mph - N/A   Clear
2:10 AM 17.2 °F 6.8 °F 4.8 °F 58% 29.81 in 10.0 mi SW 8.1 mph - N/A   Clear
2:30 AM 17.2 °F 6.8 °F 4.8 °F 58% 29.81 in 10.0 mi SW 8.1 mph - N/A   Clear
2:50 AM 17.2 °F 6.0 °F 4.3 °F 57% 29.80 in 10.0 mi SW 9.2 mph - N/A   Clear
3:10 AM 17.2 °F 5.2 °F 3.7 °F 56% 29.79 in 10.0 mi SW 10.4 mph - N/A   Clear
3:30 AM 17.2 °F 4.5 °F 3.2 °F 54% 29.78 in 10.0 mi SW 11.5 mph 17.3 mph N/A   Clear
3:50 AM 17.2 °F 4.5 °F 3.2 °F 54% 29.77 in 10.0 mi SW 11.5 mph - N/A   Clear
4:10 AM 16.7 °F 8.3 °F 3.2 °F 55% 29.77 in 10.0 mi SW 5.8 mph - N/A   Clear
4:30 AM 16.7 °F 5.3 °F 3.0 °F 55% 29.77 in 10.0 mi SW 9.2 mph - N/A   Clear
4:50 AM 16.7 °F 5.3 °F 3.0 °F 55% 29.76 in 10.0 mi SSW 9.2 mph - N/A   Clear
5:10 AM 16.7 °F 7.2 °F 3.2 °F 55% 29.77 in 10.0 mi SW 6.9 mph - N/A   Clear
5:30 AM 17.1 °F 5.8 °F 3.9 °F 56% 29.77 in 10.0 mi SW 9.2 mph 16.1 mph N/A   Mostly Cloudy
5:50 AM 17.1 °F 5.8 °F 3.2 °F 55% 29.77 in 10.0 mi SW 9.2 mph - N/A   Scattered Clouds
6:10 AM 16.9 °F 6.4 °F 3.2 °F 55% 29.77 in 10.0 mi SW 8.1 mph 17.3 mph N/A   Clear
6:30 AM 16.7 °F 7.2 °F 3.4 °F 56% 29.77 in 10.0 mi SW 6.9 mph - N/A   Clear
6:50 AM 16.5 °F 8.1 °F 3.7 °F 57% 29.77 in 10.0 mi SSW 5.8 mph - N/A   Clear
7:10 AM 16.7 °F 7.2 °F 4.6 °F 59% 29.77 in 10.0 mi SSW 6.9 mph - N/A   Mostly Cloudy
7:30 AM 16.7 °F 7.2 °F 4.8 °F 60% 29.77 in 10.0 mi SSW 6.9 mph - N/A   Mostly Cloudy
7:50 AM 18.0 °F 8.7 °F 5.7 °F 59% 29.78 in 10.0 mi SSW 6.9 mph - N/A   Mostly Cloudy
8:10 AM 18.5 °F 6.8 °F 6.1 °F 58% 29.79 in 10.0 mi SW 10.4 mph - N/A   Mostly Cloudy
8:30 AM 19.6 °F 8.1 °F 6.8 °F 58% 29.79 in 10.0 mi SW 10.4 mph - N/A   Mostly Cloudy
8:50 AM 20.8 °F 7.3 °F 7.5 °F 56% 29.80 in 10.0 mi WSW 15.0 mph 20.7 mph N/A   Mostly Cloudy
9:10 AM 22.5 °F 8.0 °F 8.2 °F 54% 29.80 in 10.0 mi WSW 18.4 mph 29.9 mph N/A   Overcast
9:30 AM 23.0 °F 7.2 °F 7.7 °F 52% 29.81 in 10.0 mi WSW 23.0 mph 31.1 mph N/A   Overcast
9:50 AM 23.9 °F 10.8 °F 7.7 °F 50% 29.82 in 10.0 mi West 16.1 mph 31.1 mph N/A   Overcast
10:10 AM 23.7 °F 7.9 °F 6.3 °F 47% 29.84 in 10.0 mi West 24.2 mph 33.4 mph N/A   Overcast
10:30 AM 24.6 °F 10.9 °F 6.3 °F 46% 29.85 in 10.0 mi West 18.4 mph 35.7 mph N/A   Overcast
10:50 AM 25.2 °F 10.8 °F 6.3 °F 45% 29.86 in 10.0 mi West 20.7 mph 35.7 mph N/A   Overcast
11:10 AM 25.0 °F 12.2 °F 6.6 °F 46% 29.86 in 10.0 mi West 16.1 mph 29.9 mph N/A   Overcast
11:30 AM 26.1 °F 13.1 °F 8.2 °F 47% 29.88 in 10.0 mi West 17.3 mph 35.7 mph N/A   Mostly Cloudy
11:50 AM 25.0 °F 10.9 °F 4.1 °F 41% 29.89 in 10.0 mi West 19.6 mph 31.1 mph N/A   Mostly Cloudy
12:10 PM 28.2 °F 15.9 °F 4.3 °F 36% 29.89 in 10.0 mi West 17.3 mph 26.5 mph N/A   Mostly Cloudy
12:30 PM 28.4 °F 14.7 °F -1.5 °F 28% 29.89 in 10.0 mi West 21.9 mph 31.1 mph N/A   Scattered Clouds
12:50 PM 29.3 °F 17.7 °F -1.8 °F 26% 29.89 in 10.0 mi West 16.1 mph 31.1 mph N/A   Clear
1:10 PM 28.4 °F 16.6 °F 0.9 °F 31% 29.90 in 10.0 mi West 16.1 mph 31.1 mph N/A   Scattered Clouds
1:30 PM 28.0 °F 15.3 °F -2.7 °F 26% 29.91 in 10.0 mi West 18.4 mph 33.4 mph N/A   Scattered Clouds
1:50 PM 28.4 °F 16.6 °F -2.4 °F 26% 29.92 in 10.0 mi WSW 16.1 mph 25.3 mph N/A   Clear
2:10 PM 27.7 °F 13.8 °F -0.8 °F 29% 29.93 in 10.0 mi West 21.9 mph 27.6 mph N/A   Clear
2:30 PM 27.7 °F 15.2 °F 0.7 °F 31% 29.94 in 10.0 mi West 17.3 mph 24.2 mph N/A   Clear
2:50 PM 27.3 °F 14.0 °F 0.3 °F 31% 29.96 in 10.0 mi West 19.6 mph 26.5 mph N/A   Clear
3:10 PM 26.6 °F 13.8 °F -0.6 °F 31% 29.97 in 10.0 mi NW 17.3 mph 24.2 mph N/A   Clear
3:30 PM 26.1 °F 14.5 °F 0.9 °F 34% 29.98 in 10.0 mi NW 13.8 mph 26.5 mph N/A   Clear
3:50 PM 26.4 °F 13.6 °F 0.7 °F 33% 29.98 in 10.0 mi West 17.3 mph 24.2 mph N/A   Clear
4:10 PM 25.3 °F 13.1 °F -0.9 °F 32% 29.99 in 10.0 mi NW 15.0 mph 24.2 mph N/A   Clear
4:30 PM 25.5 °F 13.8 °F -0.4 °F 33% 30.00 in 10.0 mi WNW 13.8 mph 19.6 mph N/A   Clear
4:50 PM 24.6 °F 12.7 °F -2.2 °F 31% 30.01 in 10.0 mi WNW 13.8 mph 19.6 mph N/A   Clear
5:10 PM 24.3 °F 13.9 °F -2.0 °F 32% 30.02 in 10.0 mi WNW 10.4 mph 20.7 mph N/A   Clear
5:30 PM 23.5 °F 14.5 °F -2.4 °F 32% 30.02 in 10.0 mi NW 8.1 mph - N/A   Clear
5:50 PM 22.1 °F 11.3 °F -2.4 °F 34% 30.03 in 10.0 mi WNW 10.4 mph - N/A   Clear
6:15 PM 21.0 °F 12.4 °F -2.6 °F 36% 30.04 in 10.0 mi NNW 6.9 mph - N/A   Clear
6:30 PM 20.3 °F 13.8 °F -2.0 °F 38% 30.06 in 10.0 mi NW 4.6 mph - N/A   Clear
6:50 PM 19.4 °F 9.5 °F -2.0 °F 39% 30.06 in 10.0 mi NNW 8.1 mph - N/A   Clear
7:10 PM 19.2 °F 10.2 °F -1.7 °F 40% 30.07 in 10.0 mi NNW 6.9 mph - N/A   Clear
7:30 PM 18.5 °F 7.5 °F -1.3 °F 42% 30.08 in 10.0 mi North 9.2 mph - N/A   Clear
7:50 PM 18.0 °F 9.8 °F -1.3 °F 43% 30.09 in 10.0 mi NNW 5.8 mph - N/A   Clear
8:10 PM 17.2 °F 8.9 °F -0.9 °F 45% 30.09 in 10.0 mi NNW 5.8 mph - N/A   Clear
8:30 PM 16.7 °F 3.8 °F 0.3 °F 49% 30.10 in 10.0 mi North 11.5 mph - N/A   Clear
8:50 PM 15.8 °F 7.2 °F 2.3 °F 55% 30.11 in 10.0 mi North 5.8 mph - N/A   Clear
9:10 PM 15.1 °F 9.4 °F 2.5 °F 58% 30.12 in 10.0 mi North 3.5 mph - N/A   Clear
9:30 PM 14.9 °F 4.0 °F 2.8 °F 59% 30.13 in 10.0 mi North 8.1 mph - N/A   Clear
9:50 PM 14.4 °F 6.9 °F 2.7 °F 60% 30.14 in 10.0 mi North 4.6 mph - N/A   Clear
10:10 PM 14.0 °F 2.9 °F 2.1 °F 59% 30.14 in 10.0 mi North 8.1 mph - N/A   Clear
10:30 PM 13.1 °F 5.4 °F 1.9 °F 61% 30.15 in 10.0 mi North 4.6 mph - N/A   Clear
11:10 PM 12.7 °F 3.6 °F 0.5 °F 58% 30.16 in 10.0 mi NNE 5.8 mph - N/A   Clear
11:30 PM 12.2 °F 4.3 °F -0.0 °F 58% 30.17 in 10.0 mi North 4.6 mph - N/A   Clear
11:50 PM 11.8 °F 3.9 °F -0.4 °F 58% 30.17 in 10.0 mi NNE 4.6 mph - N/A   Clear